TGW258 WSSS-WADL

Flight info

Callsign TGW258
Flight time 2h 22m
Altitude 35000
Route IDBUD1A IDBUD T24 SURGA M635 UDONO DCT AGUDA T19 SOVKA SOVKA1D
Aircraft A320/M-SDE3FGHIRWY/LB1

Departure

Time 2026-04-23 10:31
Airport Singapore Changi Airport (WSSS)

Arrival

Time 2026-04-23 12:53
Airport Lombok International Airport (WADL)
Time Latitude Longitude Altitude Speed Heading
2026-04-23 10:19 1.36368 103.99410 30 ft 0 kts 323°
2026-04-23 10:20 1.36357 103.99419 30 ft 4 kts 323°
2026-04-23 10:20 1.36333 103.99430 30 ft 4 kts 342°
2026-04-23 10:21 1.36316 103.99440 30 ft 4 kts 313°
2026-04-23 10:21 1.36305 103.99462 30 ft 4 kts 263°
2026-04-23 10:21 1.36313 103.99483 30 ft 1 kts 232°
2026-04-23 10:21 1.36313 103.99484 30 ft 0 kts 232°
2026-04-23 10:24 1.36288 103.99451 30 ft 16 kts 232°
2026-04-23 10:24 1.36182 103.99393 30 ft 19 kts 203°
2026-04-23 10:24 1.36058 103.99341 30 ft 20 kts 203°
2026-04-23 10:24 1.35957 103.99299 30 ft 10 kts 195°
2026-04-23 10:25 1.35915 103.99349 30 ft 11 kts 112°
2026-04-23 10:25 1.35883 103.99424 30 ft 13 kts 113°
2026-04-23 10:25 1.35848 103.99504 30 ft 9 kts 114°
2026-04-23 10:25 1.35799 103.99532 30 ft 10 kts 198°
2026-04-23 10:26 1.35733 103.99504 30 ft 11 kts 202°
2026-04-23 10:26 1.35657 103.99474 30 ft 12 kts 200°
2026-04-23 10:26 1.35573 103.99441 30 ft 14 kts 204°
2026-04-23 10:26 1.35483 103.99398 30 ft 15 kts 203°
2026-04-23 10:27 1.35339 103.99339 30 ft 32 kts 202°
2026-04-23 10:27 1.35115 103.99245 30 ft 35 kts 203°
2026-04-23 10:27 1.34886 103.99148 30 ft 36 kts 202°
2026-04-23 10:27 1.34653 103.99050 30 ft 37 kts 202°
2026-04-23 10:28 1.34417 103.98951 30 ft 37 kts 203°
2026-04-23 10:28 1.34177 103.98849 30 ft 38 kts 202°
2026-04-23 10:28 1.33934 103.98747 30 ft 38 kts 203°
2026-04-23 10:28 1.33704 103.98650 30 ft 24 kts 203°
2026-04-23 10:29 1.33613 103.98626 30 ft 9 kts 164°
2026-04-23 10:29 1.33578 103.98676 30 ft 9 kts 112°
2026-04-23 10:29 1.33554 103.98732 30 ft 9 kts 113°
2026-04-23 10:29 1.33555 103.98785 30 ft 8 kts 44°
2026-04-23 10:30 1.33661 103.98828 30 ft 42 kts 23°
2026-04-23 10:30 1.34135 103.99028 30 ft 103 kts 23°
2026-04-23 10:30 1.34937 103.99367 31 ft 149 kts 23°
2026-04-23 10:30 1.35988 103.99797 273 ft 167 kts 25°
2026-04-23 10:31 1.37049 104.00267 880 ft 167 kts 36°
2026-04-23 10:31 1.37728 104.01170 1418 ft 166 kts 75°
2026-04-23 10:31 1.37873 104.02333 1785 ft 178 kts 87°
2026-04-23 10:31 1.37570 104.03589 1917 ft 201 kts 122°
2026-04-23 10:32 1.36501 104.04591 2082 ft 225 kts 146°
2026-04-23 10:32 1.35121 104.05490 2290 ft 249 kts 145°
2026-04-23 10:32 1.33620 104.06485 2756 ft 265 kts 145°
2026-04-23 10:32 1.32068 104.07517 3483 ft 270 kts 146°
2026-04-23 10:33 1.30498 104.08563 4258 ft 273 kts 146°
2026-04-23 10:33 1.28909 104.09625 5019 ft 276 kts 146°
2026-04-23 10:33 1.27304 104.10699 5768 ft 279 kts 147°
2026-04-23 10:33 1.25686 104.11782 6495 ft 281 kts 147°
2026-04-23 10:34 1.24052 104.12876 7179 ft 284 kts 147°
2026-04-23 10:34 1.22397 104.13980 7867 ft 287 kts 147°
2026-04-23 10:34 1.20729 104.15093 8542 ft 290 kts 147°
2026-04-23 10:34 1.19046 104.16215 9208 ft 293 kts 147°
2026-04-23 10:35 1.17342 104.17353 9841 ft 296 kts 147°
2026-04-23 10:35 1.15609 104.18513 10221 ft 308 kts 147°
2026-04-23 10:35 1.13762 104.19748 10346 ft 329 kts 147°
2026-04-23 10:35 1.11807 104.21055 10466 ft 348 kts 147°
2026-04-23 10:36 1.09756 104.22428 10701 ft 360 kts 147°
2026-04-23 10:36 1.07650 104.23833 11159 ft 365 kts 147°
2026-04-23 10:36 1.05557 104.25230 11665 ft 369 kts 147°
2026-04-23 10:36 1.03417 104.26660 12180 ft 372 kts 147°
2026-04-23 10:37 1.01257 104.28102 12699 ft 375 kts 147°
2026-04-23 10:37 0.99083 104.29553 13207 ft 378 kts 147°
2026-04-23 10:37 0.96889 104.31018 13694 ft 381 kts 147°
2026-04-23 10:37 0.94679 104.32493 14138 ft 384 kts 147°
2026-04-23 10:38 0.92452 104.33980 14589 ft 386 kts 147°
2026-04-23 10:38 0.90215 104.35473 15037 ft 389 kts 147°
2026-04-23 10:38 0.87958 104.36979 15486 ft 391 kts 146°
2026-04-23 10:38 0.85689 104.38494 15943 ft 394 kts 146°
2026-04-23 10:39 0.83406 104.40017 16405 ft 396 kts 146°
2026-04-23 10:39 0.81105 104.41553 16871 ft 399 kts 146°
2026-04-23 10:39 0.78791 104.43100 17328 ft 401 kts 146°
2026-04-23 10:39 0.76463 104.44658 17793 ft 404 kts 146°
2026-04-23 10:40 0.74120 104.46225 18231 ft 407 kts 146°
2026-04-23 10:40 0.71759 104.47803 18635 ft 409 kts 146°
2026-04-23 10:40 0.69385 104.49388 19057 ft 411 kts 146°
2026-04-23 10:40 0.67000 104.50983 19475 ft 414 kts 146°
2026-04-23 10:41 0.64602 104.52586 19888 ft 416 kts 146°
2026-04-23 10:41 0.62193 104.54197 20292 ft 418 kts 146°
2026-04-23 10:41 0.59771 104.55816 20673 ft 420 kts 146°
2026-04-23 10:41 0.57334 104.57444 21060 ft 422 kts 146°
2026-04-23 10:42 0.54883 104.59081 21421 ft 425 kts 146°
2026-04-23 10:42 0.52421 104.60725 21782 ft 427 kts 146°
2026-04-23 10:42 0.49952 104.62386 22126 ft 429 kts 144°
2026-04-23 10:42 0.47677 104.64321 22450 ft 431 kts 134°
2026-04-23 10:43 0.45766 104.66628 22776 ft 433 kts 124°
2026-04-23 10:43 0.44213 104.69209 23089 ft 435 kts 120°
2026-04-23 10:43 0.42703 104.71835 23395 ft 437 kts 120°
2026-04-23 10:43 0.41185 104.74470 23657 ft 438 kts 120°
2026-04-23 10:44 0.39658 104.77114 23911 ft 440 kts 120°
2026-04-23 10:44 0.38144 104.79728 24165 ft 441 kts 120°
2026-04-23 10:44 0.36602 104.82385 24415 ft 443 kts 120°
2026-04-23 10:44 0.35032 104.85089 24665 ft 445 kts 120°
2026-04-23 10:45 0.33500 104.87733 24913 ft 446 kts 120°
2026-04-23 10:45 0.31945 104.90422 25160 ft 448 kts 120°
2026-04-23 10:45 0.30390 104.93122 25402 ft 449 kts 120°
2026-04-23 10:45 0.28827 104.95830 25643 ft 450 kts 120°
2026-04-23 10:46 0.27259 104.98545 25870 ft 452 kts 120°
2026-04-23 10:46 0.25682 105.01270 26090 ft 454 kts 120°
2026-04-23 10:46 0.24101 105.04008 26317 ft 455 kts 120°
2026-04-23 10:46 0.22518 105.06750 26545 ft 457 kts 120°
2026-04-23 10:47 0.20924 105.09502 26798 ft 457 kts 120°
2026-04-23 10:47 0.19334 105.12250 27120 ft 456 kts 120°
2026-04-23 10:47 0.17750 105.14992 27458 ft 455 kts 120°
2026-04-23 10:47 0.16171 105.17728 27783 ft 454 kts 120°
2026-04-23 10:48 0.14590 105.20465 28121 ft 454 kts 120°
2026-04-23 10:48 0.13014 105.23187 28462 ft 453 kts 120°
2026-04-23 10:48 0.11436 105.25909 28811 ft 452 kts 120°
2026-04-23 10:48 0.09860 105.28626 29163 ft 451 kts 120°
2026-04-23 10:49 0.08292 105.31339 29511 ft 451 kts 120°
2026-04-23 10:49 0.06730 105.34046 29892 ft 450 kts 120°
2026-04-23 10:49 0.05168 105.36752 30204 ft 449 kts 120°
2026-04-23 10:49 0.03608 105.39451 30513 ft 448 kts 120°
2026-04-23 10:50 0.02049 105.42147 30824 ft 447 kts 120°
2026-04-23 10:50 0.00493 105.44834 31138 ft 447 kts 120°
2026-04-23 10:50 -0.01059 105.47519 31459 ft 446 kts 120°
2026-04-23 10:50 -0.02604 105.50197 31779 ft 445 kts 120°
2026-04-23 10:51 -0.04150 105.52875 32102 ft 444 kts 120°
2026-04-23 10:51 -0.05692 105.55546 32433 ft 443 kts 120°
2026-04-23 10:51 -0.07232 105.58210 32735 ft 443 kts 120°
2026-04-23 10:51 -0.08780 105.60881 32819 ft 446 kts 121°
2026-04-23 10:52 -0.11932 105.66313 32828 ft 457 kts 121°
2026-04-23 10:52 -0.15118 105.71829 32828 ft 459 kts 120°
2026-04-23 10:53 -0.18303 105.77354 32829 ft 459 kts 121°
2026-04-23 10:53 -0.21481 105.82846 32830 ft 459 kts 121°
2026-04-23 10:54 -0.24682 105.88373 32830 ft 460 kts 121°
2026-04-23 10:54 -0.27891 105.93903 32835 ft 460 kts 121°
2026-04-23 10:55 -0.30574 105.98543 32836 ft 460 kts 120°
2026-04-23 10:55 -0.34291 106.04993 32839 ft 461 kts 120°
2026-04-23 10:56 -0.36952 106.09606 32839 ft 461 kts 121°
2026-04-23 10:56 -0.40161 106.15152 32835 ft 461 kts 120°
2026-04-23 10:57 -0.43372 106.20701 32837 ft 461 kts 121°
2026-04-23 10:57 -0.46585 106.26251 32837 ft 461 kts 120°
2026-04-23 10:58 -0.49796 106.31803 32838 ft 461 kts 120°
2026-04-23 10:58 -0.53007 106.37354 32842 ft 461 kts 120°
2026-04-23 10:59 -0.56215 106.42906 32841 ft 461 kts 120°
2026-04-23 10:59 -0.59425 106.48456 32843 ft 461 kts 120°
2026-04-23 11:00 -0.62976 106.53770 32840 ft 460 kts 131°
2026-04-23 11:00 -0.67221 106.58559 32840 ft 460 kts 132°
2026-04-23 11:01 -0.71470 106.63341 32838 ft 460 kts 131°
2026-04-23 11:01 -0.75723 106.68122 32835 ft 460 kts 131°
2026-04-23 11:02 -0.79966 106.72909 32840 ft 460 kts 131°
2026-04-23 11:02 -0.84211 106.77690 32841 ft 460 kts 131°
2026-04-23 11:03 -0.88454 106.82479 32839 ft 460 kts 131°
2026-04-23 11:03 -0.92696 106.87262 32838 ft 460 kts 131°
2026-04-23 11:04 -0.96940 106.92050 32836 ft 460 kts 131°
2026-04-23 11:04 -1.01187 106.96832 32835 ft 460 kts 131°
2026-04-23 11:05 -1.05440 107.01610 32834 ft 460 kts 131°
2026-04-23 11:05 -1.09688 107.06402 32834 ft 461 kts 131°
2026-04-23 11:06 -1.16056 107.13601 32838 ft 461 kts 131°
2026-04-23 11:07 -1.20307 107.18393 32839 ft 460 kts 131°
2026-04-23 11:07 -1.24556 107.23182 32834 ft 460 kts 131°
2026-04-23 11:08 -1.28807 107.27973 32837 ft 461 kts 131°
2026-04-23 11:08 -1.33054 107.32768 32834 ft 461 kts 131°
2026-04-23 11:09 -1.37306 107.37564 32829 ft 461 kts 131°
2026-04-23 11:09 -1.41483 107.42372 32829 ft 461 kts 130°
2026-04-23 11:10 -1.45656 107.47242 32825 ft 461 kts 130°
2026-04-23 11:10 -1.49840 107.52107 32826 ft 462 kts 130°
2026-04-23 11:11 -1.54036 107.56973 32829 ft 462 kts 130°
2026-04-23 11:11 -1.58233 107.61832 32827 ft 462 kts 131°
2026-04-23 11:12 -1.62437 107.66700 32829 ft 462 kts 130°
2026-04-23 11:12 -1.66637 107.71567 32833 ft 462 kts 130°
2026-04-23 11:13 -1.70834 107.76436 32834 ft 462 kts 130°
2026-04-23 11:13 -1.75031 107.81302 32833 ft 462 kts 130°
2026-04-23 11:14 -1.79238 107.86177 32838 ft 462 kts 130°
2026-04-23 11:14 -1.83434 107.91044 32839 ft 462 kts 130°
2026-04-23 11:15 -1.87603 107.95873 32839 ft 462 kts 130°
2026-04-23 11:15 -1.91766 108.00727 32815 ft 457 kts 130°
2026-04-23 11:16 -1.95865 108.05518 32788 ft 450 kts 130°
2026-04-23 11:16 -1.99899 108.10220 32828 ft 441 kts 130°
2026-04-23 11:17 -2.03867 108.14826 32826 ft 434 kts 130°
2026-04-23 11:17 -2.07774 108.19357 32827 ft 426 kts 130°
2026-04-23 11:18 -2.11621 108.23812 32827 ft 419 kts 130°
2026-04-23 11:18 -2.15405 108.28184 32826 ft 412 kts 130°
2026-04-23 11:19 -2.19125 108.32490 32825 ft 406 kts 130°
2026-04-23 11:19 -2.22789 108.36735 32830 ft 400 kts 130°
2026-04-23 11:20 -2.26398 108.40923 32831 ft 395 kts 130°
2026-04-23 11:20 -2.29965 108.45068 32829 ft 390 kts 130°
2026-04-23 11:21 -2.33489 108.49151 32831 ft 385 kts 131°
2026-04-23 11:21 -2.36949 108.53157 32830 ft 380 kts 130°
2026-04-23 11:22 -2.40377 108.57142 32827 ft 375 kts 130°
2026-04-23 11:22 -2.43755 108.61057 32827 ft 368 kts 131°
2026-04-23 11:23 -2.47074 108.64892 32825 ft 361 kts 130°
2026-04-23 11:23 -2.50317 108.68648 32829 ft 352 kts 130°
2026-04-23 11:24 -2.53476 108.72305 32827 ft 342 kts 130°
2026-04-23 11:24 -2.56540 108.75852 32822 ft 331 kts 130°
2026-04-23 11:25 -2.59604 108.79355 32606 ft 342 kts 133°
2026-04-23 11:25 -2.61221 108.81108 32772 ft 340 kts 134°
2026-04-23 11:25 -2.62837 108.82799 33139 ft 332 kts 135°
2026-04-23 11:25 -2.64448 108.84437 33241 ft 334 kts 133°
2026-04-23 11:26 -2.66029 108.86226 32882 ft 349 kts 129°
2026-04-23 11:26 -2.69016 108.90044 33281 ft 346 kts 127°
2026-04-23 11:26 -2.70533 108.91987 32963 ft 362 kts 129°
2026-04-23 11:27 -2.72175 108.93949 32785 ft 374 kts 130°
2026-04-23 11:27 -2.75674 108.97943 32754 ft 390 kts 131°
2026-04-23 11:28 -2.79288 109.02079 32755 ft 405 kts 130°
2026-04-23 11:28 -2.83048 109.06414 32745 ft 420 kts 130°
2026-04-23 11:29 -2.86932 109.10917 32750 ft 435 kts 130°
2026-04-23 11:29 -2.90956 109.15576 32747 ft 450 kts 130°
2026-04-23 11:30 -2.95110 109.20395 32748 ft 462 kts 130°
2026-04-23 11:30 -2.99311 109.25291 32745 ft 465 kts 130°
2026-04-23 11:31 -3.03522 109.30196 32748 ft 465 kts 130°
2026-04-23 11:31 -3.07744 109.35094 32751 ft 465 kts 130°
2026-04-23 11:32 -3.11969 109.39994 32752 ft 465 kts 130°
2026-04-23 11:32 -3.16186 109.44902 32747 ft 465 kts 130°
2026-04-23 11:33 -3.20408 109.49808 32747 ft 465 kts 130°
2026-04-23 11:33 -3.24631 109.54714 32752 ft 465 kts 130°
2026-04-23 11:34 -3.28849 109.59617 32754 ft 465 kts 130°
2026-04-23 11:34 -3.33039 109.64496 32754 ft 465 kts 130°
2026-04-23 11:35 -3.37253 109.69405 32752 ft 464 kts 130°
2026-04-23 11:35 -3.41465 109.74308 32752 ft 464 kts 130°
2026-04-23 11:36 -3.45684 109.79211 32753 ft 464 kts 130°
2026-04-23 11:36 -3.49898 109.84115 32754 ft 464 kts 130°
2026-04-23 11:37 -3.54091 109.88992 32755 ft 464 kts 130°
2026-04-23 11:37 -3.58307 109.93897 32755 ft 464 kts 129°
2026-04-23 11:38 -3.62518 109.98801 32751 ft 463 kts 129°
2026-04-23 11:38 -3.66721 110.03692 32759 ft 463 kts 129°
2026-04-23 11:39 -3.70914 110.08580 32763 ft 463 kts 129°
2026-04-23 11:39 -3.75088 110.13432 32757 ft 463 kts 129°
2026-04-23 11:40 -3.79286 110.18324 32758 ft 462 kts 129°
2026-04-23 11:40 -3.83479 110.23213 32757 ft 462 kts 129°
2026-04-23 11:41 -3.86964 110.27275 32760 ft 462 kts 129°
2026-04-23 11:41 -3.91150 110.32158 32756 ft 462 kts 129°
2026-04-23 11:42 -3.95346 110.37038 32768 ft 462 kts 129°
2026-04-23 11:42 -3.99443 110.41996 32756 ft 462 kts 127°
2026-04-23 11:43 -4.03329 110.47118 32760 ft 461 kts 126°
2026-04-23 11:43 -4.07192 110.52255 32752 ft 461 kts 126°
2026-04-23 11:44 -4.11109 110.57352 32762 ft 462 kts 127°
2026-04-23 11:44 -4.15047 110.62428 32760 ft 461 kts 127°
2026-04-23 11:45 -4.18984 110.67510 32761 ft 461 kts 127°
2026-04-23 11:45 -4.22903 110.72597 32769 ft 461 kts 127°
2026-04-23 11:45 -4.24866 110.75148 32907 ft 462 kts 127°
2026-04-23 11:46 -4.26829 110.77695 33229 ft 461 kts 127°
2026-04-23 11:46 -4.28785 110.80231 33565 ft 460 kts 127°
2026-04-23 11:46 -4.30736 110.82764 33891 ft 458 kts 127°
2026-04-23 11:46 -4.32684 110.85291 34179 ft 457 kts 127°
2026-04-23 11:47 -4.34628 110.87808 34454 ft 456 kts 127°
2026-04-23 11:47 -4.36568 110.90320 34728 ft 455 kts 127°
2026-04-23 11:47 -4.38511 110.92835 34821 ft 455 kts 127°
2026-04-23 11:48 -4.42377 110.97856 34844 ft 454 kts 127°
2026-04-23 11:48 -4.46237 111.02873 34842 ft 454 kts 127°
2026-04-23 11:49 -4.50079 111.07854 34846 ft 454 kts 127°
2026-04-23 11:49 -4.53948 111.12870 34849 ft 454 kts 127°
2026-04-23 11:50 -4.57810 111.17882 34850 ft 455 kts 127°
2026-04-23 11:50 -4.61675 111.22905 34853 ft 455 kts 126°
2026-04-23 11:51 -4.65553 111.27918 34853 ft 455 kts 127°
2026-04-23 11:51 -4.69443 111.32928 34854 ft 455 kts 127°
2026-04-23 11:52 -4.73328 111.37942 34853 ft 455 kts 126°
2026-04-23 11:52 -4.77211 111.42954 34854 ft 455 kts 127°
2026-04-23 11:53 -4.81100 111.47970 34855 ft 455 kts 127°
2026-04-23 11:53 -4.84980 111.52991 34857 ft 455 kts 126°
2026-04-23 11:54 -4.88843 111.57980 34856 ft 455 kts 127°
2026-04-23 11:54 -4.92735 111.62993 34859 ft 455 kts 126°
2026-04-23 11:55 -4.96618 111.68012 34858 ft 455 kts 126°
2026-04-23 11:55 -5.00499 111.73033 34865 ft 455 kts 126°
2026-04-23 11:56 -5.04382 111.78056 34867 ft 455 kts 126°
2026-04-23 11:56 -5.08265 111.83072 34870 ft 455 kts 126°
2026-04-23 11:57 -5.12142 111.88090 34870 ft 455 kts 126°
2026-04-23 11:57 -5.16024 111.93113 34866 ft 455 kts 126°
2026-04-23 11:58 -5.19908 111.98125 34867 ft 455 kts 126°
2026-04-23 11:58 -5.23791 112.03146 34866 ft 455 kts 126°
2026-04-23 11:59 -5.27667 112.08166 34865 ft 455 kts 126°
2026-04-23 11:59 -5.31538 112.13178 34864 ft 455 kts 126°
2026-04-23 12:00 -5.35408 112.18198 34865 ft 455 kts 126°
2026-04-23 12:00 -5.39281 112.23217 34870 ft 455 kts 126°
2026-04-23 12:01 -5.43153 112.28244 34873 ft 455 kts 126°
2026-04-23 12:01 -5.47010 112.33236 34872 ft 455 kts 126°
2026-04-23 12:02 -5.50888 112.38262 34876 ft 455 kts 126°
2026-04-23 12:02 -5.54758 112.43288 34885 ft 455 kts 126°
2026-04-23 12:03 -5.58637 112.48314 34883 ft 455 kts 126°
2026-04-23 12:03 -5.62509 112.53325 34884 ft 454 kts 126°
2026-04-23 12:04 -5.66374 112.58339 34885 ft 454 kts 126°
2026-04-23 12:04 -5.70231 112.63349 34883 ft 453 kts 126°
2026-04-23 12:05 -5.74094 112.68360 34883 ft 453 kts 126°
2026-04-23 12:05 -5.77953 112.73375 34879 ft 453 kts 126°
2026-04-23 12:06 -5.81778 112.78361 34879 ft 453 kts 126°
2026-04-23 12:06 -5.87572 112.85876 34878 ft 454 kts 126°
2026-04-23 12:07 -5.91436 112.90889 34880 ft 454 kts 126°
2026-04-23 12:07 -5.95294 112.95908 34882 ft 454 kts 126°
2026-04-23 12:08 -5.99155 113.00928 34880 ft 454 kts 126°
2026-04-23 12:08 -6.03012 113.05944 34879 ft 454 kts 126°
2026-04-23 12:09 -6.06869 113.10969 34877 ft 454 kts 126°
2026-04-23 12:09 -6.10729 113.16000 34876 ft 454 kts 126°
2026-04-23 12:10 -6.14604 113.21027 34874 ft 455 kts 126°
2026-04-23 12:10 -6.18478 113.26054 34874 ft 455 kts 126°
2026-04-23 12:11 -6.22314 113.31061 34873 ft 455 kts 125°
2026-04-23 12:11 -6.26603 113.35744 34870 ft 459 kts 140°
2026-04-23 12:12 -6.31788 113.39513 34866 ft 460 kts 142°
2026-04-23 12:12 -6.37002 113.43249 34869 ft 460 kts 142°
2026-04-23 12:13 -6.42205 113.46995 34872 ft 460 kts 142°
2026-04-23 12:13 -6.47409 113.50751 34870 ft 460 kts 142°
2026-04-23 12:14 -6.52609 113.54511 34872 ft 460 kts 142°
2026-04-23 12:14 -6.57775 113.58249 34869 ft 460 kts 142°
2026-04-23 12:15 -6.62976 113.62009 34870 ft 460 kts 142°
2026-04-23 12:15 -6.68176 113.65776 34872 ft 460 kts 142°
2026-04-23 12:16 -6.73378 113.69532 34869 ft 460 kts 142°
2026-04-23 12:16 -6.78595 113.73286 34872 ft 461 kts 142°
2026-04-23 12:17 -6.83798 113.77046 34871 ft 461 kts 142°
2026-04-23 12:17 -6.88998 113.80815 34872 ft 461 kts 142°
2026-04-23 12:18 -6.94205 113.84588 34874 ft 461 kts 142°
2026-04-23 12:18 -6.99392 113.88375 34869 ft 460 kts 139°
2026-04-23 12:19 -7.03834 113.92953 34871 ft 457 kts 129°
2026-04-23 12:19 -7.08039 113.97755 34872 ft 457 kts 129°
2026-04-23 12:20 -7.12256 114.02548 34870 ft 457 kts 130°
2026-04-23 12:20 -7.16469 114.07347 34869 ft 457 kts 129°
2026-04-23 12:21 -7.20674 114.12147 34873 ft 457 kts 130°
2026-04-23 12:21 -7.24885 114.16941 34875 ft 457 kts 130°
2026-04-23 12:22 -7.29097 114.21740 34874 ft 457 kts 130°
2026-04-23 12:22 -7.33300 114.26542 34874 ft 457 kts 129°
2026-04-23 12:23 -7.37360 114.31189 34875 ft 457 kts 129°
2026-04-23 12:23 -7.41566 114.36000 34878 ft 457 kts 130°
2026-04-23 12:24 -7.45196 114.41196 34876 ft 453 kts 114°
2026-04-23 12:24 -7.47027 114.47187 34878 ft 450 kts 101°
2026-04-23 12:25 -7.48354 114.53354 34876 ft 451 kts 101°
2026-04-23 12:25 -7.49696 114.59530 34879 ft 451 kts 101°
2026-04-23 12:26 -7.50808 114.64665 34882 ft 451 kts 101°
2026-04-23 12:26 -7.52139 114.70842 34883 ft 451 kts 101°
2026-04-23 12:27 -7.53471 114.77032 34801 ft 452 kts 101°
2026-04-23 12:27 -7.54136 114.80126 34566 ft 452 kts 101°
2026-04-23 12:27 -7.54801 114.83223 34341 ft 452 kts 101°
2026-04-23 12:28 -7.55466 114.86318 34114 ft 453 kts 101°
2026-04-23 12:28 -7.56136 114.89420 33886 ft 453 kts 101°
2026-04-23 12:28 -7.56806 114.92528 33639 ft 454 kts 101°
2026-04-23 12:28 -7.57479 114.95649 32802 ft 458 kts 101°
2026-04-23 12:29 -7.58156 114.98808 31876 ft 462 kts 101°
2026-04-23 12:29 -7.58837 115.01983 30981 ft 466 kts 101°
2026-04-23 12:29 -7.59523 115.05191 29954 ft 471 kts 101°
2026-04-23 12:29 -7.60217 115.08438 28927 ft 474 kts 101°
2026-04-23 12:30 -7.60906 115.11654 28410 ft 465 kts 102°
2026-04-23 12:30 -7.61589 115.14824 27747 ft 461 kts 102°
2026-04-23 12:30 -7.62266 115.17962 27092 ft 457 kts 101°
2026-04-23 12:30 -7.62936 115.21078 26451 ft 453 kts 101°
2026-04-23 12:31 -7.63597 115.24169 25813 ft 449 kts 101°
2026-04-23 12:31 -7.64244 115.27191 25186 ft 446 kts 101°
2026-04-23 12:31 -7.64899 115.30242 24556 ft 444 kts 101°
2026-04-23 12:31 -7.65452 115.32831 24029 ft 442 kts 101°
2026-04-23 12:32 -7.66097 115.35851 23378 ft 440 kts 101°
2026-04-23 12:32 -7.66741 115.38859 22695 ft 436 kts 102°
2026-04-23 12:32 -7.67646 115.41758 22110 ft 432 kts 112°
2026-04-23 12:32 -7.69086 115.44398 21525 ft 429 kts 124°
2026-04-23 12:33 -7.71006 115.46680 20957 ft 426 kts 135°
2026-04-23 12:33 -7.73299 115.48559 20415 ft 424 kts 142°
2026-04-23 12:33 -7.75645 115.50336 19864 ft 421 kts 142°
2026-04-23 12:33 -7.77971 115.52118 19352 ft 418 kts 141°
2026-04-23 12:34 -7.80278 115.53894 18838 ft 417 kts 142°
2026-04-23 12:34 -7.82585 115.55602 18672 ft 405 kts 143°
2026-04-23 12:34 -7.84863 115.57202 18555 ft 392 kts 144°
2026-04-23 12:34 -7.87082 115.58712 18445 ft 379 kts 145°
2026-04-23 12:35 -7.89236 115.60160 18333 ft 366 kts 145°
2026-04-23 12:35 -7.91319 115.61566 18221 ft 354 kts 144°
2026-04-23 12:35 -7.93332 115.62947 18003 ft 346 kts 144°
2026-04-23 12:35 -7.95302 115.64309 17744 ft 341 kts 144°
2026-04-23 12:36 -7.97244 115.65660 17493 ft 337 kts 144°
2026-04-23 12:36 -7.99170 115.67000 17239 ft 336 kts 144°
2026-04-23 12:36 -8.01088 115.68336 16991 ft 334 kts 144°
2026-04-23 12:36 -8.02994 115.69665 16742 ft 333 kts 144°
2026-04-23 12:37 -8.04897 115.70987 16496 ft 331 kts 144°
2026-04-23 12:37 -8.06792 115.72298 16252 ft 330 kts 144°
2026-04-23 12:37 -8.08679 115.73604 16016 ft 328 kts 144°
2026-04-23 12:37 -8.10557 115.74905 15773 ft 327 kts 144°
2026-04-23 12:38 -8.12426 115.76198 15533 ft 326 kts 144°
2026-04-23 12:38 -8.14293 115.77492 15305 ft 324 kts 144°
2026-04-23 12:38 -8.16144 115.78779 14997 ft 323 kts 144°
2026-04-23 12:38 -8.17999 115.80070 14544 ft 325 kts 144°
2026-04-23 12:39 -8.19860 115.81362 14218 ft 323 kts 144°
2026-04-23 12:39 -8.21725 115.82657 13834 ft 323 kts 144°
2026-04-23 12:39 -8.23565 115.83937 13522 ft 320 kts 144°
2026-04-23 12:39 -8.25395 115.85207 13166 ft 318 kts 144°
2026-04-23 12:40 -8.27213 115.86471 12815 ft 316 kts 144°
2026-04-23 12:40 -8.29023 115.87728 12461 ft 314 kts 144°
2026-04-23 12:40 -8.30820 115.88974 12113 ft 313 kts 144°
2026-04-23 12:40 -8.32608 115.90212 11770 ft 311 kts 144°
2026-04-23 12:41 -8.34388 115.91443 11436 ft 309 kts 144°
2026-04-23 12:41 -8.36162 115.92664 11102 ft 307 kts 145°
2026-04-23 12:41 -8.37942 115.93848 10775 ft 306 kts 146°
2026-04-23 12:41 -8.39723 115.95008 10454 ft 304 kts 146°
2026-04-23 12:42 -8.41499 115.96156 10141 ft 302 kts 146°
2026-04-23 12:42 -8.43262 115.97298 9828 ft 300 kts 146°
2026-04-23 12:42 -8.44998 115.98424 9369 ft 302 kts 146°
2026-04-23 12:42 -8.46808 115.99602 8539 ft 316 kts 146°
2026-04-23 12:43 -8.48693 116.00831 7726 ft 329 kts 146°
2026-04-23 12:43 -8.50647 116.02105 6890 ft 339 kts 146°
2026-04-23 12:43 -8.52647 116.03408 6290 ft 341 kts 146°
2026-04-23 12:43 -8.54623 116.04699 5862 ft 335 kts 146°
2026-04-23 12:44 -8.56561 116.05967 5531 ft 328 kts 146°
2026-04-23 12:44 -8.58435 116.07194 5405 ft 314 kts 146°
2026-04-23 12:44 -8.60200 116.08412 5286 ft 301 kts 138°
2026-04-23 12:44 -8.61445 116.10031 5167 ft 288 kts 114°
2026-04-23 12:45 -8.62120 116.11890 5044 ft 277 kts 113°
2026-04-23 12:45 -8.63215 116.13424 4924 ft 267 kts 140°
2026-04-23 12:45 -8.64794 116.14355 4801 ft 258 kts 152°
2026-04-23 12:45 -8.66144 116.15420 4680 ft 238 kts 126°
2026-04-23 12:46 -8.67079 116.16722 4543 ft 220 kts 129°
2026-04-23 12:46 -8.68235 116.17567 4441 ft 203 kts 163°
2026-04-23 12:46 -8.69596 116.17547 4275 ft 197 kts 199°
2026-04-23 12:46 -8.70747 116.16808 3998 ft 197 kts 218°
2026-04-23 12:47 -8.71762 116.15851 3692 ft 198 kts 234°
2026-04-23 12:47 -8.72149 116.14566 3425 ft 197 kts 273°
2026-04-23 12:47 -8.71688 116.13293 3141 ft 195 kts 304°
2026-04-23 12:47 -8.70868 116.12199 3016 ft 196 kts 310°
2026-04-23 12:48 -8.69913 116.11241 2817 ft 193 kts 333°
2026-04-23 12:48 -8.68629 116.11015 2544 ft 188 kts 14°
2026-04-23 12:48 -8.67470 116.11609 2521 ft 190 kts 39°
2026-04-23 12:48 -8.66743 116.12682 2506 ft 187 kts 78°
2026-04-23 12:49 -8.66807 116.13982 2516 ft 188 kts 102°
2026-04-23 12:49 -8.67047 116.15278 2513 ft 188 kts 101°
2026-04-23 12:49 -8.67284 116.16578 2506 ft 188 kts 103°
2026-04-23 12:49 -8.67847 116.17751 2394 ft 183 kts 128°
2026-04-23 12:50 -8.68614 116.18700 2220 ft 165 kts 129°
2026-04-23 12:50 -8.69324 116.19578 2009 ft 158 kts 129°
2026-04-23 12:50 -8.70015 116.20434 1807 ft 156 kts 129°
2026-04-23 12:50 -8.70695 116.21278 1610 ft 155 kts 129°
2026-04-23 12:51 -8.71353 116.22096 1410 ft 148 kts 129°
2026-04-23 12:51 -8.72004 116.22904 1230 ft 145 kts 129°
2026-04-23 12:51 -8.72637 116.23691 1051 ft 144 kts 129°
2026-04-23 12:51 -8.73258 116.24462 870 ft 143 kts 129°
2026-04-23 12:52 -8.73883 116.25238 685 ft 142 kts 129°
2026-04-23 12:52 -8.74506 116.26011 500 ft 141 kts 129°
2026-04-23 12:52 -8.75125 116.26780 334 ft 140 kts 128°
2026-04-23 12:52 -8.75646 116.27431 333 ft 94 kts 129°
2026-04-23 12:53 -8.75868 116.27707 334 ft 34 kts 129°
2026-04-23 12:53 -8.75968 116.27833 334 ft 14 kts 134°
2026-04-23 12:53 -8.76043 116.27803 334 ft 14 kts 219°
2026-04-23 12:53 -8.76125 116.27734 332 ft 17 kts 220°
2026-04-23 12:54 -8.76183 116.27665 332 ft 9 kts 288°
2026-04-23 12:54 -8.76150 116.27622 331 ft 9 kts 303°
2026-04-23 12:54 -8.76170 116.27591 334 ft 6 kts 201°
2026-04-23 12:54 -8.76205 116.27562 332 ft 6 kts 222°
2026-04-23 12:55 -8.76216 116.27553 334 ft 1 kts 221°